GW3795 Weather Reports


time (UTC)temp
C
wind
direction
speed
KPH
gust
KPH
rain 1hr
cm
rain 24hr
cm
rain mn
cm
humidity
%
barometer
mb
20260509024550 15 38 22.5 24.1 0.00 0.05 0.05 71 1011.4
20260509024046 15 8 14.5 25.7 0.00 0.05 0.05 70 1011.3
20260509023544 15 25 17.7 25.7 0.00 0.05 0.05 69 1011.6
20260509023040 16 33 16.1 33.8 0.00 0.05 0.05 66 1011.4
20260509022537 16 2 16.1 16.1 0.05 0.05 0.05 62 1011.2
20260509022035 16 12 8.0 8.0 0.05 0.05 0.05 64 1011.0
20260509021532 16 8 6.4 9.7 0.00 0.03 0.03 65 1011.1
20260509021029 16 312 4.8 6.4 0.00 0.03 0.03 67 1011.0
20260509020527 16 345 3.2 6.4 0.00 0.03 0.03 71 1010.9
20260509020023 16 15 8.0 9.7 0.00 0.03 0.03 70 1011.0
20260509015523 16 10 4.8 8.0 0.05 0.03 0.03 71 1010.7
20260509015019 16 16 8.0 9.7 0.05 0.03 0.03 70 1010.8
20260509014516 16 7 0.0 1.6 0.00 0.03 0.03 68 1010.7
20260509014012 16 11 8.0 8.0 0.00 0.03 0.03 67 1010.7
20260509013509 17 24 4.8 6.4 0.00 0.03 0.03 64 1010.7
20260509013004 17 6 6.4 6.4 0.05 0.03 0.03 60 1011.0
20260509012501 18 296 1.6 6.4 0.05 0.03 0.03 56 1010.9
20260509011958 18 276 4.8 9.7 0.05 0.00 0.00 54 1011.0
20260509011456 18 271 6.4 9.7 0.05 0.00 0.00 51 1010.7
20260509010953 18 7 14.5 14.5 0.00 0.00 0.00 51 1010.8
20260509010451 18 120 0.0 3.2 0.00 0.00 0.00 50 1010.9
20260509005947 18 13 3.2 6.4 0.00 0.00 0.00 52 1010.7
20260509005446 19 331 1.6 3.2 0.00 0.00 0.00 49 1010.7
20260509004945 19 75 0.0 6.4 0.00 0.00 0.00 46 1010.6
20260509004442 19 303 3.2 4.8 0.00 0.00 0.00 48 1010.7
20260509003940 19 341 3.2 4.8 0.00 0.00 0.00 45 1010.4
20260509003438 19 335 3.2 4.8 0.00 0.00 0.00 45 1010.3
20260509002935 19 268 3.2 3.2 0.00 0.00 0.00 44 1010.5
20260509002433 19 331 4.8 6.4 0.00 0.00 0.00 44 1010.2
20260509001930 20 4 3.2 6.4 0.00 0.00 0.00 46 1010.3
20260509001426 20 299 3.2 6.4 0.00 0.00 0.00 42 1010.4
20260509000923 20 261 0.0 6.4 0.00 0.00 0.00 42 1010.5
20260509000421 20 326 3.2 3.2 0.00 0.00 0.00 42 1010.5
20260508235916 20 315 3.2 4.8 0.00 0.00 0.00 41 1010.5
20260508235414 20 273 1.6 4.8 0.00 0.00 0.00 41 1010.2
20260508234911 20 312 1.6 4.8 0.00 0.00 0.00 42 1010.2
20260508234408 20 275 4.8 4.8 0.00 0.00 0.00 42 1010.3
20260508233906 20 288 3.2 4.8 0.00 0.00 0.00 42 1010.2
20260508233405 20 287 1.6 3.2 0.00 0.00 0.00 42 1010.2
20260508232901 20 182 1.6 3.2 0.00 0.00 0.00 41 1010.1
20260508232358 20 289 3.2 6.4 0.00 0.00 0.00 42 1010.4
20260508231856 20 268 3.2 6.4 0.00 0.00 0.00 40 1010.6
20260508231352 20 288 4.8 8.0 0.00 0.00 0.00 40 1010.5
20260508230849 20 305 0.0 6.4 0.00 0.00 0.00 40 1010.5
20260508230345 20 309 3.2 6.4 0.00 0.00 0.00 39 1010.3
20260508225843 20 295 1.6 9.7 0.00 0.00 0.00 39 1010.1
20260508225339 21 140 3.2 4.8 0.00 0.00 0.00 39 1010.2
20260508224838 21 313 6.4 14.5 0.00 0.00 0.00 38 1010.3
20260508224335 21 17 0.0 4.8 0.00 0.00 0.00 38 1010.1
20260508223832 21 248 4.8 9.7 0.00 0.00 0.00 37 1010.2
20260508223329 21 268 8.0 11.3 0.00 0.00 0.00 37 1009.8
20260508222827 21 316 9.7 9.7 0.00 0.00 0.00 37 1010.0
20260508222324 21 119 3.2 8.0 0.00 0.00 0.00 38 1010.2
20260508221821 21 269 6.4 12.9 0.00 0.00 0.00 37 1010.0
20260508221316 21 291 6.4 6.4 0.00 0.00 0.00 38 1010.0
20260508220813 21 267 3.2 8.0 0.00 0.00 0.00 37 1010.1
20260508220309 21 232 0.0 11.3 0.00 0.00 0.00 37 1010.1
20260508215806 21 229 0.0 9.7 0.00 0.00 0.00 37 1010.2
20260508215306 21 257 9.7 11.3 0.00 0.00 0.00 36 1010.1
20260508214800 21 342 0.0 9.7 0.00 0.00 0.00 36 1010.1
20260508214256 21 198 3.2 9.7 0.00 0.00 0.00 37 1009.8
20260508213753 21 225 14.5 17.7 0.00 0.00 0.00 35 1010.0
20260508213250 21 258 8.0 9.7 0.00 0.00 0.00 36 1010.2
20260508212747 21 123 3.2 9.7 0.00 0.00 0.00 36 1010.2
20260508212243 21 254 9.7 9.7 0.00 0.00 0.00 35 1010.1
20260508211739 21 178 3.2 8.0 0.00 0.00 0.00 36 1010.1
20260508211234 21 254 3.2 6.4 0.00 0.00 0.00 36 1010.3
20260508210732 21 162 6.4 9.7 0.00 0.00 0.00 34 1010.1
20260508210229 21 178 1.6 14.5 0.00 0.00 0.00 36 1010.5
20260508205726 21 141 6.4 14.5 0.00 0.00 0.00 35 1010.3
20260508205222 21 148 4.8 9.7 0.00 0.00 0.00 36 1010.6
20260508204718 21 234 3.2 12.9 0.00 0.00 0.00 36 1010.7
20260508204215 21 241 6.4 14.5 0.00 0.00 0.00 35 1010.8
20260508203711 21 249 8.0 8.0 0.00 0.00 0.00 35 1010.9
20260508203207 21 198 6.4 12.9 0.00 0.00 0.00 35 1011.0
20260508202703 21 289 6.4 12.9 0.00 0.00 0.00 34 1011.1
20260508202201 21 287 9.7 11.3 0.00 0.00 0.00 35 1010.9
20260508201657 21 328 6.4 14.5 0.00 0.00 0.00 34 1011.0
20260508201154 21 236 3.2 9.7 0.00 0.00 0.00 35 1011.2
20260508200651 21 234 16.1 20.9 0.00 0.00 0.00 35 1011.3
20260508200147 21 260 8.0 17.7 0.00 0.00 0.00 35 1011.2
20260508195644 21 270 4.8 9.7 0.00 0.00 0.00 34 1011.3
20260508195140 21 254 6.4 8.0 0.00 0.00 0.00 35 1011.5
20260508194637 21 306 12.9 12.9 0.00 0.00 0.00 33 1011.4
20260508194134 21 239 4.8 9.7 0.00 0.00 0.00 34 1011.4
20260508193631 21 254 4.8 14.5 0.00 0.00 0.00 33 1011.5
20260508193128 21 161 1.6 8.0 0.00 0.00 0.00 34 1011.4
20260508192624 21 281 6.4 19.3 0.00 0.00 0.00 33 1011.5
20260508192121 21 280 6.4 20.9 0.00 0.00 0.00 32 1011.5
20260508191618 22 253 4.8 19.3 0.00 0.00 0.00 32 1011.5
20260508191115 22 264 4.8 16.1 0.00 0.00 0.00 31 1011.7
20260508190612 22 155 1.6 8.0 0.00 0.00 0.00 32 1011.7
20260508190108 22 264 14.5 27.4 0.00 0.00 0.00 31 1012.0
20260508185606 22 290 8.0 16.1 0.00 0.00 0.00 31 1011.8
20260508185103 22 267 3.2 9.7 0.00 0.00 0.00 33 1011.9
20260508184600 22 259 17.7 19.3 0.00 0.00 0.00 32 1012.0
20260508184057 21 56 1.6 16.1 0.00 0.00 0.00 32 1012.0
20260508183553 21 251 12.9 17.7 0.00 0.00 0.00 33 1012.2
20260508183049 21 203 4.8 22.5 0.00 0.00 0.00 32 1012.4
20260508182546 21 167 4.8 22.5 0.00 0.00 0.00 32 1012.6
20260508182044 21 232 11.3 17.7 0.00 0.00 0.00 32 1012.7
20260508181544 21 258 16.1 19.3 0.00 0.00 0.00 32 1012.7
20260508181042 21 241 16.1 19.3 0.00 0.00 0.00 32 1013.0
20260508180538 21 218 1.6 24.1 0.00 0.00 0.00 34 1013.0
20260508180035 21 332 6.4 12.9 0.00 0.00 0.00 33 1012.9
20260508175531 21 138 6.4 19.3 0.00 0.00 0.00 34 1012.8
20260508175029 21 166 4.8 16.1 0.00 0.00 0.00 34 1013.0
20260508174526 20 239 14.5 19.3 0.00 0.00 0.00 33 1013.0
20260508174023 20 297 4.8 19.3 0.00 0.00 0.00 34 1013.1
20260508173520 21 299 9.7 20.9 0.00 0.00 0.00 33 1013.4
20260508173016 21 283 8.0 14.5 0.00 0.00 0.00 34 1013.2
20260508172513 21 234 20.9 20.9 0.00 0.00 0.00 34 1013.4
20260508172009 21 216 9.7 30.6 0.00 0.00 0.00 34 1013.5
20260508171506 21 213 4.8 14.5 0.00 0.00 0.00 36 1013.7
20260508171003 21 291 19.3 20.9 0.00 0.00 0.00 35 1013.7
20260508170500 21 229 8.0 16.1 0.00 0.00 0.00 36 1013.8
20260508165957 21 278 4.8 20.9 0.00 0.00 0.00 36 1014.0
20260508165455 20 342 12.9 19.3 0.00 0.00 0.00 37 1014.1
20260508164950 20 262 12.9 17.7 0.00 0.00 0.00 37 1013.9
20260508164447 20 185 4.8 17.7 0.00 0.00 0.00 38 1014.2
20260508163944 20 126 8.0 17.7 0.00 0.00 0.00 40 1014.5
20260508163442 20 237 12.9 12.9 0.00 0.00 0.00 38 1014.4
20260508162937 20 258 11.3 12.9 0.00 0.00 0.00 39 1014.6
20260508162435 20 303 11.3 17.7 0.00 0.00 0.00 39 1014.5
20260508161932 19 263 9.7 19.3 0.00 0.00 0.00 40 1014.7
20260508161429 19 310 6.4 16.1 0.00 0.00 0.00 38 1014.7
20260508160926 19 283 9.7 24.1 0.00 0.00 0.00 38 1014.7
20260508160425 19 252 8.0 16.1 0.00 0.00 0.00 39 1014.6
20260508155921 19 261 9.7 25.7 0.00 0.00 0.00 38 1014.8
20260508155418 19 350 6.4 12.9 0.00 0.00 0.00 39 1014.7
20260508154915 18 281 16.1 22.5 0.00 0.00 0.00 40 1014.9
20260508154413 18 254 9.7 17.7 0.00 0.00 0.00 40 1014.8
20260508153909 18 292 11.3 17.7 0.00 0.00 0.00 41 1014.8
20260508153406 18 318 8.0 20.9 0.00 0.00 0.00 41 1015.3
20260508152902 18 320 9.7 17.7 0.00 0.00 0.00 41 1015.2
20260508152359 18 288 14.5 17.7 0.00 0.00 0.00 41 1015.1
20260508151855 18 268 4.8 17.7 0.00 0.00 0.00 41 1015.2
20260508151352 17 263 19.3 22.5 0.00 0.00 0.00 41 1015.3
20260508150848 17 340 16.1 30.6 0.00 0.00 0.00 42 1015.4
20260508150346 17 249 11.3 20.9 0.00 0.00 0.00 42 1015.2
20260508145841 17 273 8.0 17.7 0.00 0.00 0.00 42 1015.5
20260508145338 17 313 14.5 19.3 0.00 0.00 0.00 42 1015.5
20260508144835 17 239 8.0 20.9 0.00 0.00 0.00 42 1015.4
20260508144333 17 323 6.4 17.7 0.00 0.00 0.00 43 1015.5
20260508143830 17 289 8.0 19.3 0.00 0.00 0.00 43 1015.3
20260508143327 16 342 17.7 19.3 0.00 0.00 0.00 42 1015.5
20260508142824 16 33 3.2 20.9 0.00 0.00 0.00 43 1015.6
20260508142321 16 59 1.6 22.5 0.00 0.00 0.00 43 1015.6
20260508141817 16 280 11.3 14.5 0.00 0.00 0.00 43 1015.7
20260508141314 16 241 17.7 19.3 0.00 0.00 0.00 43 1015.7
20260508140811 16 248 17.7 25.7 0.00 0.00 0.00 43 1015.7
20260508140308 16 288 12.9 20.9 0.00 0.00 0.00 43 1015.8
20260508135804 15 245 9.7 17.7 0.00 0.00 0.00 43 1015.7
20260508135300 15 15 19.3 19.3 0.00 0.00 0.00 43 1015.8
20260508134756 15 318 9.7 17.7 0.00 0.00 0.00 44 1015.9
20260508134253 15 302 11.3 22.5 0.00 0.00 0.00 44 1015.8
20260508133750 15 257 6.4 14.5 0.00 0.00 0.00 45 1015.7
20260508133248 15 265 14.5 17.7 0.00 0.00 0.00 45 1015.8
20260508132745 15 254 14.5 22.5 0.00 0.00 0.00 45 1016.0
20260508132242 14 296 8.0 19.3 0.00 0.00 0.00 45 1015.8
20260508131738 14 304 9.7 19.3 0.00 0.00 0.00 45 1015.8
20260508131235 14 274 9.7 20.9 0.00 0.00 0.00 46 1015.9
20260508130731 14 299 6.4 17.7 0.00 0.00 0.00 46 1015.8
20260508130229 13 302 14.5 20.9 0.00 0.00 0.00 47 1015.9
20260508125724 13 285 9.7 12.9 0.00 0.00 0.00 49 1015.7
20260508125221 13 336 4.8 17.7 0.00 0.00 0.00 47 1015.7
20260508124719 12 287 6.4 14.5 0.00 0.00 0.00 48 1015.6
20260508124216 12 270 9.7 14.5 0.00 0.00 0.00 50 1015.8
20260508123714 12 298 3.2 6.4 0.00 0.00 0.00 51 1015.6
20260508123212 12 289 4.8 6.4 0.00 0.00 0.00 52 1015.6
20260508122707 12 261 4.8 11.3 0.00 0.00 0.00 53 1015.6
20260508122205 11 276 3.2 4.8 0.00 0.00 0.00 56 1015.8
20260508121702 11 285 3.2 8.0 0.00 0.00 0.00 55 1015.7
20260508121200 11 296 1.6 8.0 0.00 0.00 0.00 54 1015.6
20260508120657 11 256 4.8 9.7 0.00 0.00 0.00 54 1015.7
20260508120156 11 256 6.4 6.4 0.00 0.00 0.00 55 1015.6
20260508115653 11 264 6.4 6.4 0.00 0.00 0.00 55 1015.7
20260508115149 11 331 1.6 9.7 0.00 0.00 0.00 55 1015.7
20260508114647 11 276 4.8 6.4 0.00 0.00 0.00 56 1015.7
20260508114143 11 62 1.6 6.4 0.00 0.00 0.00 54 1015.6
20260508113640 10 348 3.2 6.4 0.00 0.00 0.00 56 1015.4
20260508113139 10 308 0.0 6.4 0.00 0.00 0.00 59 1015.4
20260508112634 10 307 0.0 3.2 0.00 0.00 0.00 60 1015.3
20260508112131 10 7 0.0 1.6 0.00 0.00 0.00 60 1015.1
20260508111628 10 305 0.0 3.2 0.00 0.00 0.00 59 1015.3
20260508111125 10 6 0.0 3.2 0.00 0.00 0.00 58 1015.3
20260508110623 10 316 3.2 4.8 0.00 0.00 0.00 55 1015.3
20260508110120 10 19 0.0 1.6 0.00 0.00 0.00 58 1015.0
20260508105619 11 286 3.2 4.8 0.00 0.00 0.00 57 1015.1
20260508105117 11 294 1.6 4.8 0.00 0.00 0.00 55 1015.0
20260508104614 11 293 3.2 6.4 0.00 0.00 0.00 54 1015.0
20260508104111 11 301 3.2 6.4 0.00 0.00 0.00 53 1015.1
20260508103608 11 322 3.2 6.4 0.00 0.00 0.00 53 1015.2
20260508103105 11 322 4.8 8.0 0.00 0.00 0.00 53 1015.0
20260508102603 11 300 4.8 8.0 0.00 0.00 0.00 53 1015.2
20260508102100 11 264 6.4 9.7 0.00 0.00 0.00 52 1015.1
20260508101558 11 323 3.2 4.8 0.00 0.00 0.00 53 1015.1
20260508101055 11 311 3.2 6.4 0.00 0.00 0.00 54 1015.1
20260508100553 11 265 6.4 9.7 0.00 0.00 0.00 54 1015.1
20260508100049 10 309 4.8 9.7 0.00 0.00 0.00 53 1015.0
20260508095546 10 325 1.6 6.4 0.00 0.00 0.00 55 1015.1
20260508095043 10 267 3.2 6.4 0.00 0.00 0.00 56 1015.0
20260508094540 10 290 4.8 8.0 0.00 0.00 0.00 55 1014.9
20260508094037 10 321 3.2 6.4 0.00 0.00 0.00 57 1015.2
20260508093534 10 318 4.8 6.4 0.00 0.00 0.00 58 1015.2
20260508093032 10 319 4.8 8.0 0.00 0.00 0.00 56 1015.0
20260508092529 10 303 3.2 4.8 0.00 0.00 0.00 57 1015.0
20260508092028 10 265 6.4 9.7 0.00 0.00 0.00 55 1015.0
20260508091525 10 304 3.2 9.7 0.00 0.00 0.00 56 1015.0
20260508091021 10 274 4.8 6.4 0.00 0.00 0.00 57 1015.3
20260508090520 10 330 3.2 6.4 0.00 0.00 0.00 56 1015.1
20260508090016 10 286 4.8 8.0 0.00 0.00 0.00 57 1015.2
20260508085512 10 293 4.8 6.4 0.00 0.00 0.00 58 1015.2
20260508085009 9 310 1.6 8.0 0.00 0.00 0.00 58 1015.1
20260508084506 9 318 4.8 6.4 0.00 0.00 0.00 61 1015.0
20260508084004 9 324 3.2 4.8 0.00 0.00 0.00 60 1015.0
20260508083501 8 339 4.8 6.4 0.00 0.00 0.00 63 1015.0
20260508082956 8 13 6.4 8.0 0.00 0.00 0.00 63 1015.0
20260508082453 9 272 3.2 6.4 0.00 0.00 0.00 64 1014.9
20260508081951 10 319 3.2 4.8 0.00 0.00 0.00 60 1014.9
20260508081448 10 350 4.8 6.4 0.00 0.00 0.00 57 1015.0
20260508080943 10 341 6.4 8.0 0.00 0.00 0.00 56 1015.0
20260508080442 10 301 3.2 9.7 0.00 0.00 0.00 58 1014.8
20260508075939 10 342 3.2 6.4 0.00 0.00 0.00 59 1014.8
20260508075436 10 356 6.4 8.0 0.00 0.00 0.00 55 1014.8
20260508074933 10 314 4.8 8.0 0.00 0.00 0.00 56 1015.0
20260508074431 10 345 6.4 12.9 0.00 0.00 0.00 57 1015.0
20260508073927 9 3 4.8 9.7 0.00 0.00 0.00 58 1015.0
20260508073425 10 280 3.2 9.7 0.00 0.00 0.00 59 1014.8
20260508072922 10 18 6.4 11.3 0.00 0.00 0.00 58 1014.9
20260508072418 10 352 8.0 9.7 0.00 0.00 0.00 55 1014.9
20260508071915 10 311 6.4 8.0 0.00 0.00 0.00 55 1015.1
20260508071413 10 352 6.4 8.0 0.00 0.00 0.00 57 1015.2
20260508070911 10 317 6.4 9.7 0.00 0.00 0.00 55 1015.0
20260508070408 9 351 6.4 9.7 0.00 0.00 0.00 58 1015.0
20260508065906 9 12 8.0 9.7 0.00 0.00 0.00 60 1015.3
20260508065404 10 7 8.0 9.7 0.00 0.00 0.00 59 1015.0
20260508064902 10 16 6.4 9.7 0.00 0.00 0.00 59 1015.2
20260508064359 10 300 3.2 6.4 0.00 0.00 0.00 58 1015.3
20260508063857 10 321 3.2 8.0 0.00 0.00 0.00 56 1015.5
20260508063354 10 347 6.4 8.0 0.00 0.00 0.00 56 1015.5
20260508062851 10 335 3.2 8.0 0.00 0.00 0.00 55 1015.6
20260508062349 10 354 8.0 9.7 0.00 0.00 0.00 56 1015.7
20260508061846 10 332 4.8 6.4 0.00 0.00 0.00 55 1015.6
20260508061343 10 286 6.4 6.4 0.00 0.00 0.00 55 1015.7
20260508060839 10 298 1.6 4.8 0.00 0.00 0.00 55 1015.7
20260508060338 10 316 4.8 9.7 0.00 0.00 0.00 55 1015.7
20260508055838 10 321 0.0 4.8 0.00 0.00 0.00 57 1016.0
20260508055336 10 279 4.8 6.4 0.00 0.00 0.00 56 1015.5
20260508054832 10 338 0.0 4.8 0.00 0.00 0.00 57 1015.9
20260508054330 10 260 4.8 6.4 0.00 0.00 0.00 53 1015.8
20260508053826 10 290 6.4 6.4 0.00 0.00 0.00 52 1015.7
20260508053324 10 268 6.4 8.0 0.00 0.00 0.00 52 1016.0
20260508052821 10 312 3.2 4.8 0.00 0.00 0.00 55 1015.8
20260508052318 10 325 6.4 12.9 0.00 0.00 0.00 54 1015.8
20260508051814 10 313 1.6 4.8 0.00 0.00 0.00 54 1015.6
20260508051309 10 288 3.2 8.0 0.00 0.00 0.00 58 1015.6
20260508050806 9 353 4.8 8.0 0.00 0.00 0.00 57 1015.7
20260508050304 8 304 1.6 6.4 0.00 0.00 0.00 64 1015.7
20260508045759 8 333 1.6 3.2 0.00 0.00 0.00 68 1015.5
20260508045257 8 304 3.2 4.8 0.00 0.00 0.00 66 1015.6
20260508044754 8 283 1.6 3.2 0.00 0.00 0.00 71 1015.5
20260508044251 8 288 0.0 4.8 0.00 0.00 0.00 69 1015.7
20260508043747 8 37 4.8 4.8 0.00 0.00 0.00 69 1015.7
20260508043245 8 243 0.0 4.8 0.00 0.00 0.00 69 1015.7
20260508042741 8 275 0.0 4.8 0.00 0.00 0.00 67 1015.7
20260508042239 8 17 8.0 8.0 0.00 0.00 0.00 64 1015.7
20260508041735 8 27 0.0 3.2 0.00 0.00 0.00 67 1015.7
20260508041232 8 356 3.2 8.0 0.00 0.00 0.00 66 1015.7
20260508040728 8 8 6.4 9.7 0.00 0.00 0.00 65 1015.6
20260508040226 8 9 6.4 8.0 0.00 0.00 0.00 65 1015.5
20260508035723 8 319 1.6 3.2 0.00 0.00 0.00 68 1015.4
20260508035220 9 2 4.8 6.4 0.00 0.00 0.00 65 1015.4
20260508034717 8 330 3.2 6.4 0.00 0.00 0.00 65 1015.4
20260508034214 9 296 0.0 4.8 0.00 0.00 0.00 68 1015.4
20260508033711 9 331 3.2 4.8 0.00 0.00 0.00 65 1015.7
20260508033210 9 292 0.0 4.8 0.00 0.00 0.00 66 1015.7
20260508032706 9 19 6.4 8.0 0.00 0.00 0.00 62 1015.7
20260508032203 9 8 4.8 6.4 0.00 0.00 0.00 63 1015.7
20260508031700 9 18 9.7 9.7 0.00 0.00 0.00 61 1015.6
20260508031156 9 2 6.4 9.7 0.00 0.00 0.00 62 1015.7
20260508030653 9 341 3.2 4.8 0.00 0.00 0.00 67 1015.5
20260508030151 9 338 3.2 8.0 0.00 0.00 0.00 63 1015.6
20260508025647 10 271 3.2 4.8 0.00 0.00 0.00 68 1015.6
20260508025144 10 350 1.6 8.0 0.00 0.00 0.00 64 1015.4